Hourly Weather Bolshie Nevadicy

Today, 23 July, Friday

Time Temperature Precipitation Wind Pressure Humidity
00:00 +17°C° 0 mm 4 mps 753 mmHg 71%
01:00 +15°C° 0 mm 4 mps 753 mmHg 74%
02:00 +16°C° 0 mm 3 mps 753 mmHg 78%
03:00 +14°C° 0 mm 3 mps 753 mmHg 81%
04:00 +14°C° 0 mm 3 mps 753 mmHg 83%
05:00 +14°C° 0 mm 3 mps 753 mmHg 86%
06:00 +16°C° 0 mm 3 mps 753 mmHg 77%
07:00 +18°C° 0 mm 3 mps 753 mmHg 68%
08:00 +19°C° 0 mm 4 mps 753 mmHg 59%
09:00 +20°C° 0 mm 4 mps 753 mmHg 53%
10:00 +21°C° 0 mm 4 mps 753 mmHg 48%
11:00 +22°C° 0 mm 4 mps 753 mmHg 43%
12:00 +22°C° 0 mm 4 mps 753 mmHg 42%
13:00 +23°C° 0 mm 4 mps 753 mmHg 42%
14:00 +22°C° 0 mm 4 mps 753 mmHg 44%
15:00 +22°C° 0 mm 4 mps 753 mmHg 44%
16:00 +22°C° 0 mm 4 mps 753 mmHg 44%
17:00 +22°C° 0 mm 4 mps 753 mmHg 45%
18:00 +20°C° 0 mm 3 mps 754 mmHg 50%
19:00 +19°C° 0 mm 2 mps 754 mmHg 55%
20:00 +17°C° 0 mm 2 mps 754 mmHg 60%
21:00 +16°C° 0 mm 2 mps 754 mmHg 63%
22:00 +15°C° 0 mm 2 mps 755 mmHg 65%
23:00 +13°C° 0 mm 2 mps 755 mmHg 68%

Tomorrow, 24 July, Saturday

Time Temperature Precipitation Wind Pressure Humidity
00:00 +13°C° 0 mm 1 mps 755 mmHg 70%
01:00 +12°C° 0 mm 1 mps 756 mmHg 72%
02:00 +12°C° 0 mm 1 mps 756 mmHg 74%
03:00 +12°C° 0 mm 1 mps 756 mmHg 74%
04:00 +12°C° 0 mm 1 mps 756 mmHg 74%
05:00 +12°C° 0 mm 1 mps 757 mmHg 74%
06:00 +15°C° 0 mm 1 mps 757 mmHg 67%
07:00 +18°C° 0 mm 1 mps 757 mmHg 60%
08:00 +20°C° 0 mm 1 mps 757 mmHg 53%
09:00 +21°C° 0 mm 1 mps 757 mmHg 49%
10:00 +21°C° 0 mm 2 mps 757 mmHg 45%
11:00 +24°C° 0 mm 2 mps 757 mmHg 40%
12:00 +24°C° 0 mm 2 mps 757 mmHg 40%
13:00 +24°C° 0 mm 2 mps 757 mmHg 40%
14:00 +24°C° 0 mm 2 mps 757 mmHg 40%
15:00 +24°C° 0 mm 2 mps 757 mmHg 40%
16:00 +24°C° 0 mm 2 mps 758 mmHg 39%
17:00 +24°C° 0 mm 2 mps 758 mmHg 39%
18:00 +23°C° 0 mm 1 mps 758 mmHg 45%
19:00 +21°C° 0 mm 1 mps 758 mmHg 52%
20:00 +17°C° 0 mm 0 mps 758 mmHg 58%
21:00 +18°C° 0 mm 1 mps 758 mmHg 61%
22:00 +16°C° 0 mm 1 mps 759 mmHg 63%
23:00 +15°C° 0 mm 1 mps 759 mmHg 65%

Day after tomorrow, 25 July, Sunday

Time Temperature Precipitation Wind Pressure Humidity
00:00 +14°C° 0 mm 1 mps 759 mmHg 67%
01:00 +13°C° 0 mm 0 mps 759 mmHg 69%
02:00 +12°C° 0 mm 0 mps 759 mmHg 71%
03:00 +12°C° 0 mm 0 mps 760 mmHg 72%
04:00 +12°C° 0 mm 0 mps 760 mmHg 73%
05:00 +12°C° 0 mm 0 mps 760 mmHg 74%
06:00 +15°C° 0 mm 0 mps 760 mmHg 66%
07:00 +19°C° 0 mm 1 mps 760 mmHg 58%
08:00 +22°C° 0 mm 1 mps 760 mmHg 50%
09:00 +24°C° 0 mm 1 mps 760 mmHg 45%
10:00 +25°C° 0 mm 1 mps 760 mmHg 41%
11:00 +27°C° 0 mm 1 mps 760 mmHg 36%
12:00 +28°C° 0 mm 1 mps 760 mmHg 34%
13:00 +28°C° 0 mm 1 mps 760 mmHg 33%
14:00 +29°C° 0 mm 1 mps 760 mmHg 31%
15:00 +29°C° 0 mm 1 mps 760 mmHg 31%
16:00 +29°C° 0 mm 1 mps 760 mmHg 32%
17:00 +28°C° 0 mm 1 mps 760 mmHg 32%
18:00 +26°C° 0 mm 1 mps 760 mmHg 40%
19:00 +24°C° 0 mm 1 mps 760 mmHg 48%
20:00 +22°C° 0 mm 1 mps 760 mmHg 56%
21:00 +21°C° 0 mm 1 mps 760 mmHg 58%
22:00 +20°C° 0 mm 1 mps 761 mmHg 60%
23:00 +18°C° 0 mm 2 mps 761 mmHg 62%

26 July, Monday

Time Temperature Precipitation Wind Pressure Humidity
00:00 +17°C° 0 mm 2 mps 761 mmHg 65%
01:00 +18°C° 0 mm 1 mps 761 mmHg 68%
02:00 +16°C° 0 mm 1 mps 761 mmHg 71%
03:00 +16°C° 0 mm 1 mps 761 mmHg 72%
04:00 +16°C° 0 mm 1 mps 761 mmHg 74%
05:00 +16°C° 0 mm 1 mps 762 mmHg 75%
06:00 +20°C° 0 mm 1 mps 762 mmHg 67%
07:00 +22°C° 0 mm 1 mps 762 mmHg 59%
08:00 +24°C° 0 mm 1 mps 762 mmHg 51%
09:00 +26°C° 0 mm 1 mps 762 mmHg 46%
10:00 +28°C° 0 mm 1 mps 762 mmHg 41%
11:00 +30°C° 0 mm 1 mps 762 mmHg 36%
12:00 +30°C° 0 mm 1 mps 761 mmHg 33%
13:00 +31°C° 0 mm 1 mps 761 mmHg 31%
14:00 +31°C° 0 mm 1 mps 761 mmHg 29%
15:00 +31°C° 0 mm 1 mps 761 mmHg 30%
16:00 +31°C° 0 mm 1 mps 761 mmHg 31%
17:00 +31°C° 0 mm 1 mps 761 mmHg 32%
18:00 +29°C° 0 mm 1 mps 761 mmHg 39%
19:00 +27°C° 0 mm 1 mps 761 mmHg 45%
20:00 +25°C° 0 mm 2 mps 761 mmHg 52%
21:00 +24°C° 0 mm 2 mps 761 mmHg 54%
22:00 +24°C° 0 mm 2 mps 761 mmHg 56%
23:00 +23°C° 0 mm 2 mps 761 mmHg 58%

27 July, Tuesday

Time Temperature Precipitation Wind Pressure Humidity
00:00 +21°C° 0 mm 2 mps 761 mmHg 61%
01:00 +21°C° 0 mm 2 mps 761 mmHg 64%
02:00 +20°C° 0 mm 2 mps 761 mmHg 67%
03:00 +20°C° 0 mm 2 mps 761 mmHg 71%
04:00 +19°C° 0 mm 2 mps 761 mmHg 74%
05:00 +19°C° 0 mm 2 mps 761 mmHg 77%
06:00 +21°C° 0 mm 2 mps 761 mmHg 70%
07:00 +24°C° 0 mm 2 mps 761 mmHg 63%
08:00 +26°C° 0 mm 3 mps 761 mmHg 57%
09:00 +27°C° 0 mm 3 mps 761 mmHg 51%
10:00 +29°C° 0 mm 3 mps 761 mmHg 46%
11:00 +30°C° 0 mm 4 mps 760 mmHg 41%
12:00 +30°C° 0 mm 3 mps 760 mmHg 43%
13:00 +29°C° 0 mm 3 mps 759 mmHg 44%
14:00 +29°C° 0 mm 2 mps 759 mmHg 46%
15:00 +29°C° 0 mm 3 mps 759 mmHg 44%
16:00 +30°C° 0 mm 3 mps 758 mmHg 41%
17:00 +30°C° 0 mm 4 mps 758 mmHg 39%
18:00 +29°C° 0 mm 3 mps 758 mmHg 44%
19:00 +27°C° 0 mm 3 mps 757 mmHg 49%
20:00 +26°C° 0 mm 3 mps 757 mmHg 54%
21:00 +25°C° 0 mm 3 mps 757 mmHg 56%
22:00 +24°C° 0 mm 3 mps 757 mmHg 59%
23:00 +23°C° 0 mm 2 mps 757 mmHg 62%

28 July, Wednesday

Time Temperature Precipitation Wind Pressure Humidity
00:00 +23°C° 0 mm 2 mps 756 mmHg 64%
01:00 +21°C° 0 mm 2 mps 756 mmHg 66%
02:00 +21°C° 0 mm 2 mps 756 mmHg 69%
03:00 +20°C° 0.1 mm 3 mps 755 mmHg 73%
04:00 +20°C° 0.1 mm 3 mps 755 mmHg 78%
05:00 +19°C° 0.1 mm 3 mps 755 mmHg 83%
06:00 +21°C° 0 mm 3 mps 754 mmHg 76%
07:00 +23°C° 0 mm 4 mps 754 mmHg 70%
08:00 +25°C° 0 mm 4 mps 753 mmHg 63%
09:00 +26°C° 0 mm 4 mps 753 mmHg 63%
10:00 +26°C° 0 mm 4 mps 753 mmHg 63%
11:00 +26°C° 0 mm 4 mps 752 mmHg 63%
12:00 +27°C° 0 mm 4 mps 752 mmHg 64%
13:00 +27°C° 0 mm 4 mps 752 mmHg 65%
14:00 +27°C° 0 mm 3 mps 751 mmHg 65%
15:00 +26°C° 0.4 mm 3 mps 751 mmHg 72%
16:00 +25°C° 0.4 mm 3 mps 750 mmHg 78%
17:00 +24°C° 0.4 mm 2 mps 750 mmHg 85%
18:00 +23°C° 4.6 mm 2 mps 750 mmHg 89%
19:00 +21°C° 4.6 mm 2 mps 749 mmHg 93%
20:00 +20°C° 4.6 mm 2 mps 749 mmHg 97%
21:00 +20°C° 2.2 mm 2 mps 749 mmHg 97%
22:00 +19°C° 2.2 mm 2 mps 749 mmHg 97%
23:00 +19°C° 2.2 mm 2 mps 749 mmHg 97%
Show more

We Need Your Consent

Meteoprog and our Service Providers may store and access personal data such as cookies, device identifiers or other similar technologies on your device and process such data to personalise content and ads, as well as provide social media features and to analyse the traffic.

  • Store and/or access information on your device

    Cookies, device identifiers or other information can be stored or accessed on your device for the purposes indicated above.

  • Personalised ads and content, ad and content measurement, audience insights, and products development

    Ads and content can be personalised based on a profile. More data can be added to better personalise ads and content. Ad and content performance can be measured. Insights about the audience who saw the ads and content can be derived. Such data can be used to develop or improve user’s experience, systems and software.

By clicking ‘I Agree’ you will allow the use of indicated cookies, device identifiers, web beacons or other similar technologies. Your settings can be changed in the browser on your device.

For certain purposes, legitimate interests may be relied on, rather than consent. You can read more about this in our Privacy and Cookie Policy.